SHIJIAN-6 02B (SJ-6 02B)

Last updated on Mon Sep 21 2026 00:03:33 GMT+0000 (Coordinated Universal Time)

1 29506U 06046B 26263.58039264 .00000450 00000+0 39406-4 0 9998 2 29506 97.6976 291.9758 0015945 109.1065 251.1887 15.01483453 85059
UTC large
Height (km)
Speed (km/s)
/
Latitude / Longitude
Inclination (degrees)
Orbital Period (minutes)
Azimuth
Elevation
Range (km)
Doppler Factor

Next 0 passes for location: London (51.5072 / 0.1276)

No passes found over London.
SHIJIAN-6 02B (SJ-6 02B)